This is the latest recevied weather packets stored in our database for station/object KC5L-7. If no packets are shown the sender has not sent any weather packets the latest 1 day(s).
| Time | Temp. | Humidity | Pressure | Rain* | Wind** | Luminosity | Snow |
|---|---|---|---|---|---|---|---|
| 1778001080 | 23.89° C | 83% | 1006.9 hPa | 0 mm | 0.45 m/s, 203° | - | - |
| 1778000480 | 23.89° C | 84% | 1006.9 hPa | 0 mm | 0.45 m/s, 194° | - | - |
| 1777999880 | 23.33° C | 85% | 1007 hPa | 0 mm | 0.89 m/s, 192° | - | - |
| 1777999280 | 23.33° C | 85% | 1007.1 hPa | 0 mm | 0.45 m/s, 209° | - | - |
| 1777998680 | 22.78° C | 86% | 1007.1 hPa | 0 mm | 0.89 m/s, 180° | - | - |
| 1777997479 | 22.78° C | 88% | 1007.3 hPa | 0 mm | 0.45 m/s, 185° | - | - |
| 1777996880 | 22.22° C | 88% | 1007.3 hPa | 0 mm | 0.45 m/s, 190° | - | - |
| 1777995680 | 22.22° C | 89% | 1007.4 hPa | 0 mm | 0.89 m/s, 183° | - | - |
| 1777995079 | 22.22° C | 89% | 1007.4 hPa | 0 mm | 0.45 m/s, 189° | - | - |
| 1777994480 | 22.22° C | 89% | 1007.3 hPa | 0 mm | 0.89 m/s, 182° | - | - |
| 1777993879 | 22.22° C | 89% | 1007.3 hPa | 0 mm | 0.45 m/s, 186° | - | - |
| 1777993280 | 21.67° C | 89% | 1007.2 hPa | 0 mm | 0.89 m/s, 180° | - | - |
| 1777992079 | 21.67° C | 89% | 1007.5 hPa | 0 mm | 0.45 m/s, 191° | - | - |
| 1777991480 | 21.67° C | 91% | 1007.4 hPa | 0 mm | 0.45 m/s, 200° | - | - |
| 1777990280 | 21.11° C | 91% | 1007.3 hPa | 0 mm | 0.45 m/s, 184° | - | - |
| 1777989680 | 21.11° C | 91% | 1007.5 hPa | 0 mm | 0.89 m/s, 185° | - | - |
| 1777989080 | 21.11° C | 91% | 1007.5 hPa | 0 mm | 0.89 m/s, 184° | - | - |
| 1777988480 | 21.11° C | 91% | 1007.6 hPa | 0 mm | 0.89 m/s, 187° | - | - |
| 1777987879 | 21.11° C | 91% | 1007.5 hPa | 0 mm | 0.89 m/s, 179° | - | - |
| 1777987280 | 21.11° C | 91% | 1007.4 hPa | 0 mm | 0.45 m/s, 191° | - | - |
| 1777986680 | 21.11° C | 91% | 1007.3 hPa | 0 mm | 0.89 m/s, 185° | - | - |
| 1777986080 | 21.11° C | 91% | 1007.2 hPa | 0 mm | 0.89 m/s, 183° | - | - |
| 1777984880 | 21.11° C | 91% | 1007.1 hPa | 0 mm | 0.89 m/s, 184° | - | - |
| 1777984280 | 20.56° C | 91% | 1006.8 hPa | 0 mm | 1.79 m/s, 184° | - | - |
| 1777983079 | 20.56° C | 91% | 1006.6 hPa | 0 mm | 0.89 m/s, 178° | - | - |
* Rain latest hour (hover to see other rain measurements)
** Current wind speed in m/s (hover to see current wind gust speed)